Time,TemperatureF,DewpointF,PressureIn,WindDirection,WindDirectionDegrees,WindSpeedMPH,WindSpeedGustMPH,Humidity,HourlyPrecipIn,Conditions,Clouds,dailyrainin,SoftwareType,DateUTC
2013-05-19 00:01:00,55.6,44.8,30.08,ESE,112,1.0,6.0,67,0.00,,,-99.99,WeatherLink 5.7,2013-05-19 04:01:00,
2013-05-19 00:11:00,56.2,45.0,30.07,East,90,1.0,6.0,66,0.00,,,-99.99,WeatherLink 5.7,2013-05-19 04:11:00,
2013-05-19 00:21:00,56.8,45.2,30.07,ESE,112,2.0,8.0,65,0.00,,,-99.99,WeatherLink 5.7,2013-05-19 04:21:00,
2013-05-19 00:31:00,57.5,45.0,30.07,ESE,112,3.0,8.0,63,0.00,,,-99.99,WeatherLink 5.7,2013-05-19 04:31:00,
2013-05-19 00:41:00,58.2,44.8,30.06,ESE,112,3.0,12.0,61,0.00,,,-99.99,WeatherLink 5.7,2013-05-19 04:41:00,
2013-05-19 00:51:00,58.8,44.9,30.06,ENE,67,3.0,11.0,60,0.00,,,-99.99,WeatherLink 5.7,2013-05-19 04:51:00,
2013-05-19 01:01:00,59.2,45.8,30.06,East,90,1.0,6.0,61,0.00,,,-99.99,WeatherLink 5.7,2013-05-19 05:01:00,
2013-05-19 01:11:00,59.2,45.8,30.06,East,90,1.0,5.0,61,0.00,,,-99.99,WeatherLink 5.7,2013-05-19 05:11:00,
2013-05-19 01:21:00,58.9,46.3,30.06,East,90,0.0,3.0,63,0.00,,,-99.99,WeatherLink 5.7,2013-05-19 05:21:00,
2013-05-19 01:31:00,58.2,46.1,30.06,East,90,0.0,2.0,64,0.00,,,-99.99,WeatherLink 5.7,2013-05-19 05:31:00,
2013-05-19 01:41:00,57.2,46.3,30.05,East,90,0.0,1.0,67,0.00,,,-99.99,WeatherLink 5.7,2013-05-19 05:41:00,
2013-05-19 01:51:00,56.4,46.0,30.05,East,90,0.0,1.0,68,0.00,,,-99.99,WeatherLink 5.7,2013-05-19 05:51:00,
2013-05-19 02:01:00,55.7,46.1,30.05,North,-999,0.0,1.0,70,0.00,,,-99.99,WeatherLink 5.7,2013-05-19 06:01:00,
2013-05-19 02:11:00,55.1,45.9,30.04,North,-999,0.0,1.0,71,0.00,,,-99.99,WeatherLink 5.7,2013-05-19 06:11:00,
2013-05-19 02:21:00,54.6,45.8,30.04,East,90,0.0,1.0,72,0.00,,,-99.99,WeatherLink 5.7,2013-05-19 06:21:00,
2013-05-19 02:31:00,54.2,45.4,30.03,East,90,0.0,2.0,72,0.00,,,-99.99,WeatherLink 5.7,2013-05-19 06:31:00,
2013-05-19 02:41:00,53.8,45.3,30.03,North,-999,0.0,0.0,73,0.00,,,-99.99,WeatherLink 5.7,2013-05-19 06:41:00,
2013-05-19 02:51:00,53.4,45.3,30.03,North,-999,0.0,0.0,74,0.00,,,-99.99,WeatherLink 5.7,2013-05-19 06:51:00,
2013-05-19 03:01:00,53.1,45.4,30.02,North,-999,0.0,1.0,75,0.00,,,-99.99,WeatherLink 5.7,2013-05-19 07:01:00,
2013-05-19 03:11:00,52.7,45.0,30.02,North,-999,0.0,1.0,75,0.00,,,-99.99,WeatherLink 5.7,2013-05-19 07:11:00,
2013-05-19 03:21:00,52.4,45.4,30.02,East,90,0.0,2.0,77,0.00,,,-99.99,WeatherLink 5.7,2013-05-19 07:21:00,
2013-05-19 03:31:00,52.2,45.2,30.02,East,90,1.0,3.0,77,0.00,,,-99.99,WeatherLink 5.7,2013-05-19 07:31:00,
2013-05-19 03:41:00,52.0,45.0,30.02,North,-999,0.0,0.0,77,0.00,,,-99.99,WeatherLink 5.7,2013-05-19 07:41:00,
2013-05-19 03:51:00,51.9,44.9,30.02,East,90,0.0,1.0,77,0.00,,,-99.99,WeatherLink 5.7,2013-05-19 07:51:00,
2013-05-19 04:01:00,51.8,44.8,30.02,East,90,0.0,1.0,77,0.00,,,-99.99,WeatherLink 5.7,2013-05-19 08:01:00,
2013-05-19 04:11:00,51.7,45.1,30.03,North,-999,0.0,1.0,78,0.00,,,-99.99,WeatherLink 5.7,2013-05-19 08:11:00,
2013-05-19 04:21:00,51.7,44.7,30.02,North,-999,0.0,0.0,77,0.00,,,-99.99,WeatherLink 5.7,2013-05-19 08:21:00,
2013-05-19 04:31:00,51.7,45.1,30.03,East,90,0.0,1.0,78,0.00,,,-99.99,WeatherLink 5.7,2013-05-19 08:31:00,
2013-05-19 04:41:00,51.7,44.7,30.03,North,-999,0.0,0.0,77,0.00,,,-99.99,WeatherLink 5.7,2013-05-19 08:41:00,
2013-05-19 04:51:00,51.6,45.0,30.03,North,-999,0.0,0.0,78,0.00,,,-99.99,WeatherLink 5.7,2013-05-19 08:51:00,
2013-05-19 05:01:00,51.6,45.0,30.04,North,-999,0.0,0.0,78,0.00,,,-99.99,WeatherLink 5.7,2013-05-19 09:01:00,
2013-05-19 05:11:00,51.5,44.9,30.04,North,-999,0.0,1.0,78,0.00,,,-99.99,WeatherLink 5.7,2013-05-19 09:11:00,
2013-05-19 05:21:00,51.4,44.8,30.04,North,-999,0.0,0.0,78,0.00,,,-99.99,WeatherLink 5.7,2013-05-19 09:21:00,
2013-05-19 05:31:00,51.3,44.7,30.04,North,-999,0.0,0.0,78,0.00,,,-99.99,WeatherLink 5.7,2013-05-19 09:31:00,
2013-05-19 05:41:00,51.1,44.8,30.03,North,-999,0.0,1.0,79,0.00,,,-99.99,WeatherLink 5.7,2013-05-19 09:41:00,
2013-05-19 05:51:00,51.1,44.8,30.03,North,-999,0.0,0.0,79,0.00,,,-99.99,WeatherLink 5.7,2013-05-19 09:51:00,
2013-05-19 06:01:00,51.1,44.8,30.04,North,-999,0.0,1.0,79,0.00,,,-99.99,WeatherLink 5.7,2013-05-19 10:01:00,
2013-05-19 06:11:00,51.0,44.7,30.04,North,-999,0.0,0.0,79,0.00,,,-99.99,WeatherLink 5.7,2013-05-19 10:11:00,
2013-05-19 06:21:00,51.1,45.1,30.04,East,90,0.0,1.0,80,0.00,,,-99.99,WeatherLink 5.7,2013-05-19 10:21:00,
2013-05-19 06:31:00,51.2,45.2,30.04,North,-999,0.0,0.0,80,0.00,,,-99.99,WeatherLink 5.7,2013-05-19 10:31:00,
2013-05-19 06:41:00,51.2,45.2,30.05,East,90,0.0,1.0,80,0.00,,,-99.99,WeatherLink 5.7,2013-05-19 10:41:00,
2013-05-19 06:51:00,51.3,45.3,30.05,East,90,0.0,2.0,80,0.00,,,-99.99,WeatherLink 5.7,2013-05-19 10:51:00,
2013-05-19 07:01:00,51.4,45.4,30.05,East,90,0.0,1.0,80,0.00,,,-99.99,WeatherLink 5.7,2013-05-19 11:01:00,
2013-05-19 07:11:00,51.6,45.6,30.05,North,-999,0.0,1.0,80,0.00,,,-99.99,WeatherLink 5.7,2013-05-19 11:11:00,
2013-05-19 07:21:00,52.0,46.0,30.05,East,90,0.0,1.0,80,0.00,,,-99.99,WeatherLink 5.7,2013-05-19 11:21:00,
2013-05-19 07:31:00,52.3,46.3,30.05,North,-999,0.0,0.0,80,0.00,,,-99.99,WeatherLink 5.7,2013-05-19 11:31:00,
2013-05-19 07:41:00,52.8,46.8,30.05,North,-999,0.0,0.0,80,0.00,,,-99.99,WeatherLink 5.7,2013-05-19 11:41:00,
2013-05-19 07:51:00,53.5,47.1,30.05,East,90,0.0,3.0,79,0.00,,,-99.99,WeatherLink 5.7,2013-05-19 11:51:00,
2013-05-19 08:01:00,54.7,46.9,30.05,East,90,2.0,5.0,75,0.00,,,-99.99,WeatherLink 5.7,2013-05-19 12:01:00,
2013-05-19 08:11:00,56.3,47.4,30.05,East,90,1.0,5.0,72,0.00,,,-99.99,WeatherLink 5.7,2013-05-19 12:11:00,
2013-05-19 08:21:00,57.9,48.9,30.05,East,90,1.0,5.0,72,0.00,,,-99.99,WeatherLink 5.7,2013-05-19 12:21:00,
2013-05-19 08:31:00,59.7,49.5,30.04,East,90,2.0,6.0,69,0.00,,,-99.99,WeatherLink 5.7,2013-05-19 12:31:00,
2013-05-19 08:41:00,61.1,50.5,30.04,East,90,2.0,7.0,68,0.00,,,-99.99,WeatherLink 5.7,2013-05-19 12:41:00,
2013-05-19 08:51:00,62.3,51.6,30.04,SE,135,1.0,6.0,68,0.00,,,-99.99,WeatherLink 5.7,2013-05-19 12:51:00,
2013-05-19 09:01:00,63.8,51.8,30.04,East,90,1.0,5.0,65,0.00,,,-99.99,WeatherLink 5.7,2013-05-19 13:01:00,
2013-05-19 09:11:00,65.5,52.6,30.05,East,90,0.0,4.0,63,0.00,,,-99.99,WeatherLink 5.7,2013-05-19 13:11:00,
2013-05-19 09:21:00,66.9,53.5,30.04,East,90,1.0,4.0,62,0.00,,,-99.99,WeatherLink 5.7,2013-05-19 13:21:00,
2013-05-19 09:31:00,68.0,54.9,30.04,East,90,2.0,6.0,63,0.00,,,-99.99,WeatherLink 5.7,2013-05-19 13:31:00,
2013-05-19 09:41:00,69.3,55.3,30.05,ESE,112,1.0,4.0,61,0.00,,,-99.99,WeatherLink 5.7,2013-05-19 13:41:00,
2013-05-19 09:51:00,70.6,56.9,30.04,ESE,112,0.0,4.0,62,0.00,,,-99.99,WeatherLink 5.7,2013-05-19 13:51:00,
2013-05-19 10:01:00,71.8,57.2,30.04,ESE,112,1.0,5.0,60,0.00,,,-99.99,WeatherLink 5.7,2013-05-19 14:01:00,
2013-05-19 10:11:00,72.1,58.4,30.03,SE,135,2.0,6.0,62,0.00,,,-99.99,WeatherLink 5.7,2013-05-19 14:11:00,
2013-05-19 10:21:00,72.8,59.0,30.03,South,180,2.0,6.0,62,0.00,,,-99.99,WeatherLink 5.7,2013-05-19 14:21:00,
2013-05-19 10:31:00,73.9,60.1,30.03,SSE,157,2.0,6.0,62,0.00,,,-99.99,WeatherLink 5.7,2013-05-19 14:31:00,
2013-05-19 10:41:00,74.5,61.1,30.03,South,180,2.0,6.0,63,0.00,,,-99.99,WeatherLink 5.7,2013-05-19 14:41:00,
2013-05-19 10:51:00,75.4,61.5,30.03,South,180,2.0,6.0,62,0.00,,,-99.99,WeatherLink 5.7,2013-05-19 14:51:00,
2013-05-19 11:01:00,75.8,61.4,30.03,SSE,157,2.0,6.0,61,0.00,,,-99.99,WeatherLink 5.7,2013-05-19 15:01:00,
2013-05-19 11:11:00,76.5,61.6,30.02,SSE,157,2.0,6.0,60,0.00,,,-99.99,WeatherLink 5.7,2013-05-19 15:11:00,
2013-05-19 11:21:00,77.2,62.7,30.02,SE,135,2.0,8.0,61,0.00,,,-99.99,WeatherLink 5.7,2013-05-19 15:21:00,
2013-05-19 11:31:00,77.7,62.7,30.02,SE,135,2.0,6.0,60,0.00,,,-99.99,WeatherLink 5.7,2013-05-19 15:31:00,
2013-05-19 11:41:00,78.3,61.8,30.03,SSE,157,2.0,6.0,57,0.00,,,-99.99,WeatherLink 5.7,2013-05-19 15:41:00,
2013-05-19 11:51:00,78.7,62.2,30.02,SSE,157,3.0,9.0,57,0.00,,,-99.99,WeatherLink 5.7,2013-05-19 15:51:00,
2013-05-19 12:01:00,78.8,64.2,30.02,South,180,2.0,7.0,61,0.00,,,-99.99,WeatherLink 5.7,2013-05-19 16:01:00,
2013-05-19 12:11:00,79.6,63.0,30.02,SSE,157,3.0,11.0,57,0.00,,,-99.99,WeatherLink 5.7,2013-05-19 16:11:00,
2013-05-19 12:21:00,80.1,63.0,30.02,SSE,157,2.0,6.0,56,0.00,,,-99.99,WeatherLink 5.7,2013-05-19 16:21:00,
2013-05-19 12:31:00,80.6,63.5,30.02,SSE,157,2.0,6.0,56,0.00,,,-99.99,WeatherLink 5.7,2013-05-19 16:31:00,
2013-05-19 12:41:00,80.6,64.9,30.02,SSE,157,2.0,8.0,59,0.00,,,-99.99,WeatherLink 5.7,2013-05-19 16:41:00,
2013-05-19 12:51:00,81.0,63.3,30.01,SE,135,3.0,9.0,55,0.00,,,-99.99,WeatherLink 5.7,2013-05-19 16:51:00,
2013-05-19 13:01:00,81.3,63.6,30.02,SSE,157,3.0,9.0,55,0.00,,,-99.99,WeatherLink 5.7,2013-05-19 17:01:00,
2013-05-19 13:11:00,81.5,65.3,30.01,SE,135,4.0,10.0,58,0.00,,,-99.99,WeatherLink 5.7,2013-05-19 17:11:00,
2013-05-19 13:21:00,82.0,63.7,30.00,ESE,112,3.0,11.0,54,0.00,,,-99.99,WeatherLink 5.7,2013-05-19 17:21:00,
2013-05-19 13:31:00,82.4,62.5,30.00,SSE,157,3.0,10.0,51,0.00,,,-99.99,WeatherLink 5.7,2013-05-19 17:31:00,
2013-05-19 13:41:00,82.2,65.4,30.00,SSE,157,2.0,9.0,57,0.00,,,-99.99,WeatherLink 5.7,2013-05-19 17:41:00,
2013-05-19 13:51:00,82.8,63.9,29.99,South,180,3.0,8.0,53,0.00,,,-99.99,WeatherLink 5.7,2013-05-19 17:51:00,
2013-05-19 14:01:00,82.8,63.4,29.99,SE,135,3.0,11.0,52,0.00,,,-99.99,WeatherLink 5.7,2013-05-19 18:01:00,
2013-05-19 14:11:00,82.8,64.5,29.99,SE,135,2.0,7.0,54,0.00,,,-99.99,WeatherLink 5.7,2013-05-19 18:11:00,
2013-05-19 14:21:00,83.3,62.7,29.98,SE,135,2.0,6.0,50,0.00,,,-99.99,WeatherLink 5.7,2013-05-19 18:21:00,
2013-05-19 14:31:00,83.4,61.7,29.97,South,180,3.0,9.0,48,0.00,,,-99.99,WeatherLink 5.7,2013-05-19 18:31:00,
2013-05-19 14:41:00,83.3,61.0,29.97,SSW,202,3.0,13.0,47,0.00,,,-99.99,WeatherLink 5.7,2013-05-19 18:41:00,
2013-05-19 14:51:00,83.6,63.0,29.96,SW,225,3.0,7.0,50,0.00,,,-99.99,WeatherLink 5.7,2013-05-19 18:51:00,
2013-05-19 15:01:00,84.1,62.9,29.96,South,180,3.0,9.0,49,0.00,,,-99.99,WeatherLink 5.7,2013-05-19 19:01:00,
2013-05-19 15:11:00,84.4,63.2,29.96,WSW,247,3.0,8.0,49,0.00,,,-99.99,WeatherLink 5.7,2013-05-19 19:11:00,
2013-05-19 15:21:00,84.7,63.4,29.96,SSW,202,1.0,5.0,49,0.00,,,-99.99,WeatherLink 5.7,2013-05-19 19:21:00,
2013-05-19 15:31:00,83.5,62.9,29.97,NNE,22,1.0,6.0,50,0.00,,,-99.99,WeatherLink 5.7,2013-05-19 19:31:00,
2013-05-19 15:41:00,83.9,63.8,29.96,SSE,157,3.0,8.0,51,0.00,,,-99.99,WeatherLink 5.7,2013-05-19 19:41:00,
2013-05-19 15:51:00,84.1,63.5,29.96,ESE,112,2.0,7.0,50,0.00,,,-99.99,WeatherLink 5.7,2013-05-19 19:51:00,
2013-05-19 16:01:00,83.6,65.2,29.96,East,90,5.0,10.0,54,0.00,,,-99.99,WeatherLink 5.7,2013-05-19 20:01:00,
2013-05-19 16:11:00,82.7,63.3,29.96,SE,135,6.0,13.0,52,0.00,,,-99.99,WeatherLink 5.7,2013-05-19 20:11:00,
2013-05-19 16:21:00,82.1,63.3,29.96,SE,135,5.0,12.0,53,0.00,,,-99.99,WeatherLink 5.7,2013-05-19 20:21:00,
2013-05-19 16:31:00,82.2,65.4,29.95,SE,135,6.0,12.0,57,0.00,,,-99.99,WeatherLink 5.7,2013-05-19 20:31:00,
2013-05-19 16:41:00,82.0,64.2,29.95,ESE,112,5.0,14.0,55,0.00,,,-99.99,WeatherLink 5.7,2013-05-19 20:41:00,
2013-05-19 16:51:00,81.4,65.2,29.94,SE,135,5.0,13.0,58,0.00,,,-99.99,WeatherLink 5.7,2013-05-19 20:51:00,
2013-05-19 17:01:00,81.3,64.6,29.94,SE,135,6.0,15.0,57,0.00,,,-99.99,WeatherLink 5.7,2013-05-19 21:01:00,
2013-05-19 17:11:00,80.8,64.6,29.94,SE,135,6.0,14.0,58,0.00,,,-99.99,WeatherLink 5.7,2013-05-19 21:11:00,
2013-05-19 17:21:00,80.4,64.8,29.94,ESE,112,5.0,11.0,59,0.00,,,-99.99,WeatherLink 5.7,2013-05-19 21:21:00,
2013-05-19 17:31:00,79.9,64.8,29.94,ESE,112,5.0,13.0,60,0.00,,,-99.99,WeatherLink 5.7,2013-05-19 21:31:00,
2013-05-19 17:41:00,79.5,63.9,29.94,SE,135,5.0,12.0,59,0.00,,,-99.99,WeatherLink 5.7,2013-05-19 21:41:00,
2013-05-19 17:51:00,79.4,64.3,29.94,ESE,112,5.0,12.0,60,0.00,,,-99.99,WeatherLink 5.7,2013-05-19 21:51:00,
2013-05-19 18:01:00,79.2,64.6,29.94,ESE,112,5.0,13.0,61,0.00,,,-99.99,WeatherLink 5.7,2013-05-19 22:01:00,
2013-05-19 18:11:00,78.8,63.7,29.94,SE,135,5.0,12.0,60,0.00,,,-99.99,WeatherLink 5.7,2013-05-19 22:11:00,
2013-05-19 18:21:00,78.4,63.8,29.94,SE,135,5.0,12.0,61,0.00,,,-99.99,WeatherLink 5.7,2013-05-19 22:21:00,
2013-05-19 18:31:00,78.2,63.6,29.94,SE,135,6.0,13.0,61,0.00,,,-99.99,WeatherLink 5.7,2013-05-19 22:31:00,
2013-05-19 18:41:00,77.8,63.3,29.94,SE,135,7.0,15.0,61,0.00,,,-99.99,WeatherLink 5.7,2013-05-19 22:41:00,
2013-05-19 18:51:00,77.3,63.3,29.94,SE,135,5.0,11.0,62,0.00,,,-99.99,WeatherLink 5.7,2013-05-19 22:51:00,
2013-05-19 19:01:00,77.0,63.4,29.94,SE,135,4.0,10.0,63,0.00,,,-99.99,WeatherLink 5.7,2013-05-19 23:01:00,
2013-05-19 19:11:00,76.5,62.5,29.94,SE,135,7.0,12.0,62,0.00,,,-99.99,WeatherLink 5.7,2013-05-19 23:11:00,
2013-05-19 19:21:00,75.9,62.8,29.94,ESE,112,5.0,12.0,64,0.00,,,-99.99,WeatherLink 5.7,2013-05-19 23:21:00,
2013-05-19 19:31:00,75.4,62.8,29.94,SE,135,5.0,10.0,65,0.00,,,-99.99,WeatherLink 5.7,2013-05-19 23:31:00,
2013-05-19 19:41:00,75.0,62.4,29.94,SE,135,5.0,10.0,65,0.00,,,-99.99,WeatherLink 5.7,2013-05-19 23:41:00,
2013-05-19 19:51:00,74.7,62.6,29.94,SE,135,5.0,10.0,66,0.00,,,-99.99,WeatherLink 5.7,2013-05-19 23:51:00,
2013-05-19 20:01:00,74.3,62.2,29.94,ESE,112,3.0,9.0,66,0.00,,,-99.99,WeatherLink 5.7,2013-05-20 00:01:00,
2013-05-19 20:11:00,73.8,62.2,29.94,SE,135,4.0,8.0,67,0.00,,,-99.99,WeatherLink 5.7,2013-05-20 00:11:00,
2013-05-19 20:21:00,73.1,61.5,29.94,SE,135,4.0,9.0,67,0.00,,,-99.99,WeatherLink 5.7,2013-05-20 00:21:00,
2013-05-19 20:31:00,72.4,61.7,29.94,SE,135,6.0,13.0,69,0.00,,,-99.99,WeatherLink 5.7,2013-05-20 00:31:00,
2013-05-19 20:41:00,71.7,61.4,29.95,SE,135,5.0,10.0,70,0.00,,,-99.99,WeatherLink 5.7,2013-05-20 00:41:00,
2013-05-19 20:51:00,70.8,60.9,29.95,SE,135,4.0,10.0,71,0.00,,,-99.99,WeatherLink 5.7,2013-05-20 00:51:00,
2013-05-19 21:01:00,70.1,60.3,29.95,SE,135,4.0,10.0,71,0.00,,,-99.99,WeatherLink 5.7,2013-05-20 01:01:00,
2013-05-19 21:11:00,69.2,59.8,29.94,SE,135,5.0,10.0,72,0.00,,,-99.99,WeatherLink 5.7,2013-05-20 01:11:00,
2013-05-19 21:21:00,68.4,59.8,29.94,SE,135,3.0,10.0,74,0.00,,,-99.99,WeatherLink 5.7,2013-05-20 01:21:00,
2013-05-19 21:31:00,67.5,59.3,29.94,SE,135,5.0,10.0,75,0.00,,,-99.99,WeatherLink 5.7,2013-05-20 01:31:00,
2013-05-19 21:41:00,66.8,59.7,29.94,SE,135,6.0,11.0,78,0.00,,,-99.99,WeatherLink 5.7,2013-05-20 01:41:00,
2013-05-19 21:51:00,66.4,59.3,29.94,SE,135,6.0,12.0,78,0.00,,,-99.99,WeatherLink 5.7,2013-05-20 01:51:00,
2013-05-19 22:01:00,66.3,59.2,29.95,SE,135,3.0,8.0,78,0.00,,,-99.99,WeatherLink 5.7,2013-05-20 02:01:00,
2013-05-19 22:11:00,66.0,59.3,29.95,SE,135,4.0,8.0,79,0.00,,,-99.99,WeatherLink 5.7,2013-05-20 02:11:00,
2013-05-19 22:21:00,65.6,58.9,29.94,SE,135,5.0,10.0,79,0.00,,,-99.99,WeatherLink 5.7,2013-05-20 02:21:00,
2013-05-19 22:31:00,65.4,58.7,29.95,SE,135,6.0,12.0,79,0.00,,,-99.99,WeatherLink 5.7,2013-05-20 02:31:00,
2013-05-19 22:41:00,65.2,58.5,29.95,SE,135,3.0,9.0,79,0.00,,,-99.99,WeatherLink 5.7,2013-05-20 02:41:00,
2013-05-19 22:51:00,65.0,58.7,29.94,SE,135,3.0,8.0,80,0.00,,,-99.99,WeatherLink 5.7,2013-05-20 02:51:00,
2013-05-19 23:01:00,64.7,58.4,29.94,SE,135,2.0,5.0,80,0.00,,,-99.99,WeatherLink 5.7,2013-05-20 03:01:00,
2013-05-19 23:11:00,64.3,58.3,29.94,SE,135,1.0,3.0,81,0.00,,,-99.99,WeatherLink 5.7,2013-05-20 03:11:00,
2013-05-19 23:21:00,64.1,58.1,29.95,SE,135,0.0,4.0,81,0.00,,,-99.99,WeatherLink 5.7,2013-05-20 03:21:00,
2013-05-19 23:31:00,63.8,58.2,29.95,SE,135,1.0,4.0,82,0.00,,,-99.99,WeatherLink 5.7,2013-05-20 03:31:00,
2013-05-19 23:41:00,63.7,58.1,29.95,SE,135,0.0,3.0,82,0.00,,,-99.99,WeatherLink 5.7,2013-05-20 03:41:00,
2013-05-19 23:51:00,63.6,58.0,29.95,SE,135,1.0,4.0,82,0.00,,,-99.99,WeatherLink 5.7,2013-05-20 03:51:00,